Time,TemperatureF,DewpointF,PressureIn,WindDirection,WindDirectionDegrees,WindSpeedMPH,WindSpeedGustMPH,Humidity,HourlyPrecipIn,Conditions,Clouds,dailyrainin,SoftwareType,DateUTC
2013-07-11 00:00:00,71.7,70.2,29.94,WNW,292,0.0,0.0,95,0.00,,,0.13,Wunderground v.1.15,2013-07-11 04:00:00,
2013-07-11 00:05:00,71.6,70.1,29.94,WNW,292,0.0,0.0,95,0.00,,,0.01,Wunderground v.1.15,2013-07-11 04:05:00,
2013-07-11 00:10:00,71.6,70.1,29.94,WNW,292,0.0,0.0,95,0.00,,,0.01,Wunderground v.1.15,2013-07-11 04:10:00,
2013-07-11 00:15:00,71.6,70.4,29.93,WNW,292,0.0,0.0,96,0.00,,,0.01,Wunderground v.1.15,2013-07-11 04:15:00,
2013-07-11 00:20:00,71.6,70.4,29.92,WNW,292,0.0,0.0,96,0.00,,,0.01,Wunderground v.1.15,2013-07-11 04:20:00,
2013-07-11 00:25:00,71.6,70.4,29.92,WNW,292,0.0,0.0,96,0.00,,,0.01,Wunderground v.1.15,2013-07-11 04:25:00,
2013-07-11 00:35:00,71.6,70.4,29.92,WNW,292,0.0,5.0,96,0.00,,,0.01,Wunderground v.1.15,2013-07-11 04:35:00,
2013-07-11 00:45:00,71.6,70.4,29.91,WNW,292,0.0,5.0,96,0.00,,,0.01,Wunderground v.1.15,2013-07-11 04:45:00,
2013-07-11 00:55:00,71.5,70.3,29.91,WNW,292,0.0,5.0,96,0.00,,,0.01,Wunderground v.1.15,2013-07-11 04:55:00,
2013-07-11 01:05:00,71.4,70.2,29.91,WNW,292,0.0,5.0,96,0.00,,,0.01,Wunderground v.1.15,2013-07-11 05:05:00,
2013-07-11 01:15:00,71.3,70.1,29.91,WNW,292,0.0,5.0,96,0.00,,,0.01,Wunderground v.1.15,2013-07-11 05:15:00,
2013-07-11 01:25:00,71.3,70.1,29.90,WNW,292,0.0,5.0,96,0.00,,,0.01,Wunderground v.1.15,2013-07-11 05:25:00,
2013-07-11 01:35:00,71.3,70.1,29.90,WNW,292,0.0,5.0,96,0.00,,,0.01,Wunderground v.1.15,2013-07-11 05:35:00,
2013-07-11 01:45:00,71.3,70.1,29.90,WNW,292,0.0,5.0,96,0.00,,,0.01,Wunderground v.1.15,2013-07-11 05:45:00,
2013-07-11 01:50:00,71.3,70.1,29.90,WNW,292,0.0,5.0,96,0.00,,,0.01,Wunderground v.1.15,2013-07-11 05:50:00,
2013-07-11 02:00:00,71.3,70.1,29.90,WNW,292,0.0,5.0,96,0.00,,,0.01,Wunderground v.1.15,2013-07-11 06:00:00,
2013-07-11 02:05:00,71.3,70.1,29.89,WNW,292,0.0,5.0,96,0.00,,,0.01,Wunderground v.1.15,2013-07-11 06:05:00,
2013-07-11 02:15:00,71.3,70.1,29.89,WNW,292,0.0,5.0,96,0.00,,,0.01,Wunderground v.1.15,2013-07-11 06:15:00,
2013-07-11 02:25:00,71.2,70.0,29.89,WNW,292,0.0,5.0,96,0.00,,,0.01,Wunderground v.1.15,2013-07-11 06:25:00,
2013-07-11 02:35:00,71.2,70.0,29.90,WNW,292,0.0,5.0,96,0.00,,,0.01,Wunderground v.1.15,2013-07-11 06:35:00,
2013-07-11 02:40:00,71.3,70.1,29.89,WNW,292,0.0,5.0,96,0.00,,,0.01,Wunderground v.1.15,2013-07-11 06:40:00,
2013-07-11 02:50:00,71.5,70.6,29.89,WNW,292,0.0,5.0,97,0.00,,,0.01,Wunderground v.1.15,2013-07-11 06:50:00,
2013-07-11 03:00:00,71.8,70.9,29.89,WNW,292,0.0,5.0,97,0.00,,,0.01,Wunderground v.1.15,2013-07-11 07:00:00,
2013-07-11 03:10:00,72.4,71.5,29.90,ENE,59,0.0,5.0,97,0.00,,,0.01,Wunderground v.1.15,2013-07-11 07:10:00,
2013-07-11 03:20:00,72.7,71.8,29.90,WSW,246,1.0,5.0,97,0.00,,,0.01,Wunderground v.1.15,2013-07-11 07:20:00,
2013-07-11 03:25:00,72.8,71.9,29.90,South,190,1.0,5.0,97,0.00,,,0.01,Wunderground v.1.15,2013-07-11 07:25:00,
2013-07-11 03:35:00,72.9,72.0,29.90,West,265,0.0,5.0,97,0.00,,,0.01,Wunderground v.1.15,2013-07-11 07:35:00,
2013-07-11 03:40:00,73.0,72.1,29.90,WSW,238,1.0,1.0,97,0.00,,,0.01,Wunderground v.1.15,2013-07-11 07:40:00,
2013-07-11 03:45:00,73.0,72.1,29.90,West,278,1.0,5.0,97,0.00,,,0.01,Wunderground v.1.15,2013-07-11 07:45:00,
2013-07-11 03:55:00,73.0,72.1,29.90,SSE,152,0.0,5.0,97,0.00,,,0.01,Wunderground v.1.15,2013-07-11 07:55:00,
2013-07-11 04:05:00,72.9,71.7,29.91,West,261,0.0,5.0,96,0.00,,,0.01,Wunderground v.1.15,2013-07-11 08:05:00,
2013-07-11 04:10:00,73.0,72.1,29.91,WNW,286,0.0,5.0,97,0.00,,,0.01,Wunderground v.1.15,2013-07-11 08:10:00,
2013-07-11 04:20:00,72.9,72.0,29.91,West,271,1.0,5.0,97,0.00,,,0.01,Wunderground v.1.15,2013-07-11 08:20:00,
2013-07-11 04:30:00,72.9,71.7,29.92,SW,223,1.0,5.0,96,0.00,,,0.01,Wunderground v.1.15,2013-07-11 08:30:00,
2013-07-11 04:40:00,72.8,71.6,29.91,WSW,239,0.0,5.0,96,0.00,,,0.01,Wunderground v.1.15,2013-07-11 08:40:00,
2013-07-11 04:45:00,72.8,71.6,29.91,SW,235,0.0,5.0,96,0.00,,,0.01,Wunderground v.1.15,2013-07-11 08:45:00,
2013-07-11 04:55:00,72.7,71.5,29.91,WSW,250,0.0,5.0,96,0.00,,,0.01,Wunderground v.1.15,2013-07-11 08:55:00,
2013-07-11 05:05:00,72.7,71.5,29.92,WSW,249,0.0,5.0,96,0.00,,,0.01,Wunderground v.1.15,2013-07-11 09:05:00,
2013-07-11 05:10:00,72.7,71.5,29.91,WSW,246,0.0,5.0,96,0.00,,,0.01,Wunderground v.1.15,2013-07-11 09:10:00,
2013-07-11 05:20:00,72.6,71.4,29.91,West,276,0.0,5.0,96,0.00,,,0.01,Wunderground v.1.15,2013-07-11 09:20:00,
2013-07-11 05:30:00,72.5,71.3,29.91,West,276,0.0,5.0,96,0.00,,,0.01,Wunderground v.1.15,2013-07-11 09:30:00,
2013-07-11 05:40:00,72.5,71.3,29.91,West,276,0.0,5.0,96,0.00,,,0.01,Wunderground v.1.15,2013-07-11 09:40:00,
2013-07-11 05:45:00,72.5,71.3,29.91,West,276,0.0,5.0,96,0.00,,,0.01,Wunderground v.1.15,2013-07-11 09:45:00,
2013-07-11 05:55:00,72.5,71.3,29.91,West,276,0.0,5.0,96,0.00,,,0.01,Wunderground v.1.15,2013-07-11 09:55:00,
2013-07-11 06:05:00,72.6,71.4,29.91,West,276,0.0,5.0,96,0.00,,,0.01,Wunderground v.1.15,2013-07-11 10:05:00,
2013-07-11 06:15:00,72.6,71.4,29.91,West,276,0.0,5.0,96,0.00,,,0.01,Wunderground v.1.15,2013-07-11 10:15:00,
2013-07-11 06:20:00,72.5,71.3,29.91,West,276,0.0,5.0,96,0.00,,,0.01,Wunderground v.1.15,2013-07-11 10:20:00,
2013-07-11 06:30:00,72.4,71.2,29.92,West,276,0.0,5.0,96,0.00,,,0.01,Wunderground v.1.15,2013-07-11 10:30:00,
2013-07-11 06:40:00,72.4,71.2,29.92,West,276,0.0,5.0,96,0.00,,,0.01,Wunderground v.1.15,2013-07-11 10:40:00,
2013-07-11 06:45:00,72.4,71.2,29.92,West,276,0.0,5.0,96,0.00,,,0.01,Wunderground v.1.15,2013-07-11 10:45:00,
2013-07-11 06:55:00,72.4,71.5,29.92,WSW,250,0.0,5.0,97,0.00,,,0.01,Wunderground v.1.15,2013-07-11 10:55:00,
2013-07-11 07:05:00,72.5,71.6,29.92,WNW,284,0.0,5.0,97,0.00,,,0.01,Wunderground v.1.15,2013-07-11 11:05:00,
2013-07-11 07:10:00,72.4,71.2,29.92,WNW,284,0.0,5.0,96,0.00,,,0.01,Wunderground v.1.15,2013-07-11 11:10:00,
2013-07-11 07:20:00,72.5,71.3,29.93,WNW,284,0.0,5.0,96,0.00,,,0.01,Wunderground v.1.15,2013-07-11 11:20:00,
2013-07-11 07:30:00,72.3,71.1,29.93,WNW,284,0.0,5.0,96,0.00,,,0.01,Wunderground v.1.15,2013-07-11 11:30:00,
2013-07-11 07:35:00,72.3,71.1,29.93,WNW,284,0.0,5.0,96,0.00,,,0.01,Wunderground v.1.15,2013-07-11 11:35:00,
2013-07-11 07:40:00,72.4,71.2,29.93,WNW,284,0.0,5.0,96,0.00,,,0.01,Wunderground v.1.15,2013-07-11 11:40:00,
2013-07-11 07:50:00,72.5,71.3,29.93,West,272,0.0,5.0,96,0.00,,,0.01,Wunderground v.1.15,2013-07-11 11:50:00,
2013-07-11 07:55:00,72.6,71.4,29.93,West,271,0.0,5.0,96,0.00,,,0.01,Wunderground v.1.15,2013-07-11 11:55:00,
2013-07-11 08:05:00,72.8,71.6,29.93,WSW,255,0.0,5.0,96,0.00,,,0.01,Wunderground v.1.15,2013-07-11 12:05:00,
2013-07-11 08:15:00,73.0,71.8,29.93,WSW,243,0.0,5.0,96,0.00,,,0.01,Wunderground v.1.15,2013-07-11 12:15:00,
2013-07-11 08:20:00,73.1,71.9,29.93,NW,306,0.0,5.0,96,0.00,,,0.01,Wunderground v.1.15,2013-07-11 12:20:00,
2013-07-11 08:30:00,73.2,72.0,29.93,WSW,254,0.0,5.0,96,0.00,,,0.01,Wunderground v.1.15,2013-07-11 12:30:00,
2013-07-11 08:40:00,73.5,72.0,29.93,WSW,254,0.0,5.0,95,0.00,,,0.01,Wunderground v.1.15,2013-07-11 12:40:00,
2013-07-11 08:50:00,73.9,72.7,29.93,WNW,293,0.0,5.0,96,0.00,,,0.01,Wunderground v.1.15,2013-07-11 12:50:00,
2013-07-11 08:55:00,73.9,72.4,29.93,WNW,302,0.0,5.0,95,0.00,,,0.01,Wunderground v.1.15,2013-07-11 12:55:00,
2013-07-11 09:05:00,74.0,72.2,29.93,WSW,254,1.0,5.0,94,0.00,,,0.01,Wunderground v.1.15,2013-07-11 13:05:00,
2013-07-11 09:10:00,74.0,72.2,29.93,WSW,244,1.0,5.0,94,0.00,,,0.01,Wunderground v.1.15,2013-07-11 13:10:00,
2013-07-11 09:20:00,74.2,72.4,29.93,West,273,1.0,5.0,94,0.00,,,0.01,Wunderground v.1.15,2013-07-11 13:20:00,
2013-07-11 09:30:00,74.3,72.5,29.93,SW,233,0.0,5.0,94,0.00,,,0.01,Wunderground v.1.15,2013-07-11 13:30:00,
2013-07-11 09:40:00,74.6,72.8,29.93,NW,308,1.0,5.0,94,0.00,,,0.01,Wunderground v.1.15,2013-07-11 13:40:00,
2013-07-11 09:45:00,74.7,72.9,29.93,West,277,1.0,5.0,94,0.00,,,0.01,Wunderground v.1.15,2013-07-11 13:45:00,
2013-07-11 09:55:00,74.9,73.1,29.93,South,187,0.0,5.0,94,0.00,,,0.01,Wunderground v.1.15,2013-07-11 13:55:00,
2013-07-11 10:05:00,75.0,72.8,29.93,WSW,246,1.0,5.0,93,0.00,,,0.01,Wunderground v.1.15,2013-07-11 14:05:00,
2013-07-11 10:15:00,75.3,73.5,29.93,SSW,211,0.0,5.0,94,0.00,,,0.01,Wunderground v.1.15,2013-07-11 14:15:00,
2013-07-11 10:25:00,75.5,73.0,29.93,West,278,1.0,5.0,92,0.00,,,0.02,Wunderground v.1.15,2013-07-11 14:25:00,
2013-07-11 10:35:00,75.1,72.9,29.93,WSW,239,1.0,5.0,93,1.04,,,0.08,Wunderground v.1.15,2013-07-11 14:35:00,
2013-07-11 10:45:00,74.1,71.9,29.94,WSW,240,0.0,5.0,93,0.09,,,0.15,Wunderground v.1.15,2013-07-11 14:45:00,
2013-07-11 10:55:00,72.9,71.1,29.93,NW,316,0.0,5.0,94,0.07,,,0.16,Wunderground v.1.15,2013-07-11 14:55:00,
2013-07-11 11:05:00,72.1,70.3,29.94,South,189,1.0,5.0,94,0.05,,,0.17,Wunderground v.1.15,2013-07-11 15:05:00,
2013-07-11 11:10:00,71.9,70.1,29.94,WSW,246,1.0,5.0,94,0.06,,,0.18,Wunderground v.1.15,2013-07-11 15:10:00,
2013-07-11 11:20:00,71.6,70.1,29.94,WSW,244,1.0,1.0,95,0.05,,,0.18,Wunderground v.1.15,2013-07-11 15:20:00,
2013-07-11 11:30:00,71.5,70.0,29.94,WSW,258,0.0,5.0,95,0.04,,,0.19,Wunderground v.1.15,2013-07-11 15:30:00,
2013-07-11 11:35:00,71.4,69.9,29.94,WSW,258,0.0,5.0,95,0.04,,,0.19,Wunderground v.1.15,2013-07-11 15:35:00,
2013-07-11 11:45:00,71.4,70.2,29.94,WNW,298,0.0,5.0,96,0.05,,,0.20,Wunderground v.1.15,2013-07-11 15:45:00,
2013-07-11 11:55:00,71.6,70.4,29.94,West,263,0.0,5.0,96,0.04,,,0.21,Wunderground v.1.15,2013-07-11 15:55:00,
2013-07-11 12:00:00,71.7,70.5,29.94,West,263,0.0,5.0,96,0.04,,,0.21,Wunderground v.1.15,2013-07-11 16:00:00,
2013-07-11 12:10:00,71.5,70.3,29.94,WNW,290,0.0,0.0,96,0.53,,,0.42,Wunderground v.1.15,2013-07-11 16:10:00,
2013-07-11 12:15:00,71.4,70.2,29.94,WSW,243,0.0,0.0,96,1.57,,,0.48,Wunderground v.1.15,2013-07-11 16:15:00,
2013-07-11 12:25:00,71.4,70.2,29.94,WSW,246,0.0,0.0,96,0.24,,,0.56,Wunderground v.1.15,2013-07-11 16:25:00,
2013-07-11 12:35:00,71.6,70.4,29.93,WSW,246,0.0,0.0,96,0.21,,,0.59,Wunderground v.1.15,2013-07-11 16:35:00,
2013-07-11 12:45:00,72.0,71.1,29.92,WSW,246,0.0,0.0,97,0.06,,,0.60,Wunderground v.1.15,2013-07-11 16:45:00,
2013-07-11 12:55:00,72.7,71.8,29.92,WSW,246,0.0,0.0,97,0.00,,,0.60,Wunderground v.1.15,2013-07-11 16:55:00,
2013-07-11 13:00:00,73.0,72.1,29.92,WSW,246,0.0,0.0,97,0.00,,,0.60,Wunderground v.1.15,2013-07-11 17:00:00,
2013-07-11 13:10:00,73.7,72.8,29.92,WSW,247,0.0,4.0,97,0.00,,,0.60,Wunderground v.1.15,2013-07-11 17:10:00,
2013-07-11 13:15:00,74.0,73.1,29.92,WSW,246,0.0,4.0,97,0.00,,,0.60,Wunderground v.1.15,2013-07-11 17:15:00,
2013-07-11 13:25:00,74.5,73.6,29.92,WSW,246,0.0,4.0,97,0.00,,,0.60,Wunderground v.1.15,2013-07-11 17:25:00,
2013-07-11 13:35:00,74.6,73.4,29.92,WSW,246,0.0,4.0,96,0.00,,,0.60,Wunderground v.1.15,2013-07-11 17:35:00,
2013-07-11 13:40:00,74.8,73.6,29.91,NNW,342,0.0,4.0,96,0.00,,,0.60,Wunderground v.1.15,2013-07-11 17:40:00,
2013-07-11 13:55:00,75.1,73.9,29.90,NNE,28,0.0,4.0,96,0.00,,,0.60,Wunderground v.1.15,2013-07-11 17:55:00,
2013-07-11 14:05:00,75.3,74.1,29.90,NNE,27,0.0,4.0,96,0.00,,,0.60,Wunderground v.1.15,2013-07-11 18:05:00,
2013-07-11 14:20:00,75.6,74.1,29.89,WSW,249,0.0,4.0,95,0.00,,,0.61,Wunderground v.1.15,2013-07-11 18:20:00,
2013-07-11 14:30:00,75.8,74.3,29.89,SW,229,0.0,4.0,95,0.00,,,0.61,Wunderground v.1.15,2013-07-11 18:30:00,
2013-07-11 14:40:00,75.9,74.4,29.88,WNW,284,0.0,4.0,95,0.00,,,0.61,Wunderground v.1.15,2013-07-11 18:40:00,
2013-07-11 14:45:00,76.0,74.1,29.88,WSW,254,0.0,4.0,94,0.00,,,0.61,Wunderground v.1.15,2013-07-11 18:45:00,
2013-07-11 14:55:00,76.0,73.8,29.88,WNW,286,0.0,4.0,93,0.00,,,0.61,Wunderground v.1.15,2013-07-11 18:55:00,
2013-07-11 15:00:00,76.0,74.1,29.88,SSE,148,0.0,4.0,94,0.00,,,0.61,Wunderground v.1.15,2013-07-11 19:00:00,
2013-07-11 15:10:00,76.3,74.4,29.88,SSE,157,0.0,4.0,94,0.00,,,0.61,Wunderground v.1.15,2013-07-11 19:10:00,
2013-07-11 15:15:00,76.5,75.0,29.88,West,265,0.0,4.0,95,0.00,,,0.61,Wunderground v.1.15,2013-07-11 19:15:00,
2013-07-11 15:25:00,76.6,74.7,29.88,West,264,0.0,4.0,94,0.00,,,0.61,Wunderground v.1.15,2013-07-11 19:25:00,
2013-07-11 15:35:00,76.9,74.7,29.87,NNW,348,0.0,4.0,93,0.00,,,0.61,Wunderground v.1.15,2013-07-11 19:35:00,
2013-07-11 15:40:00,76.9,74.7,29.87,SW,215,0.0,4.0,93,0.00,,,0.61,Wunderground v.1.15,2013-07-11 19:40:00,
2013-07-11 15:50:00,77.0,74.5,29.87,SE,131,0.0,4.0,92,0.00,,,0.61,Wunderground v.1.15,2013-07-11 19:50:00,
2013-07-11 16:00:00,77.1,74.9,29.87,South,180,0.0,4.0,93,0.00,,,0.61,Wunderground v.1.15,2013-07-11 20:00:00,
2013-07-11 16:05:00,77.2,75.0,29.87,ESE,120,0.0,4.0,93,0.00,,,0.61,Wunderground v.1.15,2013-07-11 20:05:00,
2013-07-11 16:10:00,77.3,75.1,29.87,West,280,0.0,4.0,93,0.00,,,0.61,Wunderground v.1.15,2013-07-11 20:10:00,
2013-07-11 16:20:00,77.7,75.2,29.87,West,281,0.0,4.0,92,0.00,,,0.61,Wunderground v.1.15,2013-07-11 20:20:00,
2013-07-11 16:25:00,77.8,75.3,29.87,West,281,0.0,4.0,92,0.00,,,0.61,Wunderground v.1.15,2013-07-11 20:25:00,
2013-07-11 16:35:00,77.8,75.0,29.86,WNW,303,0.0,4.0,91,0.00,,,0.61,Wunderground v.1.15,2013-07-11 20:35:00,
2013-07-11 16:45:00,77.7,74.9,29.86,WNW,303,0.0,4.0,91,0.00,,,0.61,Wunderground v.1.15,2013-07-11 20:45:00,
2013-07-11 16:50:00,77.6,74.8,29.86,NW,311,0.0,4.0,91,0.00,,,0.61,Wunderground v.1.15,2013-07-11 20:50:00,
2013-07-11 17:00:00,77.6,75.1,29.86,ESE,113,0.0,4.0,92,0.00,,,0.61,Wunderground v.1.15,2013-07-11 21:00:00,
2013-07-11 17:10:00,77.4,74.2,29.86,NW,323,0.0,4.0,90,0.00,,,0.61,Wunderground v.1.15,2013-07-11 21:10:00,
2013-07-11 17:15:00,77.5,74.7,29.86,WNW,299,0.0,4.0,91,0.00,,,0.61,Wunderground v.1.15,2013-07-11 21:15:00,
2013-07-11 17:30:00,77.9,75.1,29.86,NNE,14,0.0,4.0,91,0.00,,,0.61,Wunderground v.1.15,2013-07-11 21:30:00,
2013-07-11 17:35:00,77.7,74.9,29.86,NNE,22,0.0,4.0,91,0.00,,,0.61,Wunderground v.1.15,2013-07-11 21:35:00,
2013-07-11 17:45:00,77.4,74.9,29.86,NNE,23,0.0,4.0,92,0.00,,,0.61,Wunderground v.1.15,2013-07-11 21:45:00,
2013-07-11 17:55:00,77.4,75.2,29.85,NNE,18,0.0,4.0,93,0.00,,,0.61,Wunderground v.1.15,2013-07-11 21:55:00,
2013-07-11 18:05:00,77.0,74.5,29.86,NNE,18,0.0,4.0,92,0.00,,,0.61,Wunderground v.1.15,2013-07-11 22:05:00,
2013-07-11 18:10:00,76.9,74.7,29.86,NNE,18,0.0,4.0,93,0.00,,,0.61,Wunderground v.1.15,2013-07-11 22:10:00,
2013-07-11 18:15:00,76.9,74.7,29.86,NNE,18,0.0,4.0,93,0.00,,,0.61,Wunderground v.1.15,2013-07-11 22:15:00,
2013-07-11 18:25:00,76.9,74.7,29.86,NNE,18,0.0,4.0,93,0.00,,,0.61,Wunderground v.1.15,2013-07-11 22:25:00,
2013-07-11 18:35:00,76.9,74.7,29.86,East,82,0.0,4.0,93,0.00,,,0.61,Wunderground v.1.15,2013-07-11 22:35:00,
2013-07-11 18:45:00,76.7,74.5,29.86,NNE,32,0.0,4.0,93,0.00,,,0.61,Wunderground v.1.15,2013-07-11 22:45:00,
2013-07-11 18:50:00,76.6,74.4,29.86,NNE,32,0.0,4.0,93,0.00,,,0.61,Wunderground v.1.15,2013-07-11 22:50:00,
2013-07-11 19:00:00,76.6,74.4,29.86,NNE,32,0.0,4.0,93,0.00,,,0.61,Wunderground v.1.15,2013-07-11 23:00:00,
2013-07-11 19:05:00,76.5,74.6,29.86,ENE,73,0.0,4.0,94,0.00,,,0.61,Wunderground v.1.15,2013-07-11 23:05:00,
2013-07-11 19:15:00,76.4,74.5,29.86,NE,51,0.0,4.0,94,0.00,,,0.61,Wunderground v.1.15,2013-07-11 23:15:00,
2013-07-11 19:25:00,76.2,74.0,29.86,NE,51,0.0,4.0,93,0.00,,,0.61,Wunderground v.1.15,2013-07-11 23:25:00,
2013-07-11 19:30:00,76.1,74.2,29.86,NE,51,0.0,4.0,94,0.00,,,0.61,Wunderground v.1.15,2013-07-11 23:30:00,
2013-07-11 19:40:00,76.0,74.1,29.86,NE,51,0.0,4.0,94,0.00,,,0.61,Wunderground v.1.15,2013-07-11 23:40:00,
2013-07-11 19:50:00,75.9,74.0,29.86,NE,52,0.0,4.0,94,0.00,,,0.61,Wunderground v.1.15,2013-07-11 23:50:00,
2013-07-11 19:55:00,75.7,73.8,29.85,NE,52,0.0,4.0,94,0.00,,,0.61,Wunderground v.1.15,2013-07-11 23:55:00,
2013-07-11 20:05:00,75.4,73.2,29.85,NW,321,0.0,4.0,93,0.00,,,0.61,Wunderground v.1.15,2013-07-12 00:05:00,
2013-07-11 20:10:00,75.3,73.5,29.85,NW,321,0.0,4.0,94,0.00,,,0.61,Wunderground v.1.15,2013-07-12 00:10:00,
2013-07-11 20:20:00,75.1,73.3,29.84,NW,321,0.0,4.0,94,0.00,,,0.61,Wunderground v.1.15,2013-07-12 00:20:00,
2013-07-11 20:30:00,74.9,73.1,29.84,NW,321,0.0,4.0,94,0.00,,,0.61,Wunderground v.1.15,2013-07-12 00:30:00,
2013-07-11 20:40:00,74.8,73.3,29.85,SW,236,0.0,4.0,95,0.00,,,0.61,Wunderground v.1.15,2013-07-12 00:40:00,
2013-07-11 20:50:00,74.7,73.2,29.86,WNW,296,0.0,4.0,95,0.00,,,0.61,Wunderground v.1.15,2013-07-12 00:50:00,
2013-07-11 20:55:00,74.6,73.1,29.86,WNW,296,0.0,4.0,95,0.00,,,0.61,Wunderground v.1.15,2013-07-12 00:55:00,
2013-07-11 21:05:00,74.6,73.1,29.86,SW,227,0.0,4.0,95,0.00,,,0.61,Wunderground v.1.15,2013-07-12 01:05:00,
2013-07-11 21:10:00,74.5,73.0,29.87,SW,227,0.0,4.0,95,0.21,,,0.62,Wunderground v.1.15,2013-07-12 01:10:00,
2013-07-11 21:20:00,74.4,72.9,29.87,SW,227,0.0,4.0,95,0.09,,,0.64,Wunderground v.1.15,2013-07-12 01:20:00,
2013-07-11 21:30:00,74.3,73.1,29.87,SW,227,0.0,4.0,96,0.06,,,0.65,Wunderground v.1.15,2013-07-12 01:30:00,
2013-07-11 21:40:00,74.2,73.0,29.86,SW,227,0.0,4.0,96,0.06,,,0.66,Wunderground v.1.15,2013-07-12 01:40:00,
2013-07-11 21:45:00,74.2,73.0,29.86,NE,55,0.0,4.0,96,0.06,,,0.67,Wunderground v.1.15,2013-07-12 01:45:00,
2013-07-11 21:55:00,74.1,72.9,29.86,NW,304,0.0,4.0,96,0.05,,,0.68,Wunderground v.1.15,2013-07-12 01:55:00,
2013-07-11 22:05:00,74.0,72.8,29.86,SW,222,0.0,4.0,96,0.05,,,0.68,Wunderground v.1.15,2013-07-12 02:05:00,
2013-07-11 22:10:00,73.9,72.7,29.86,SW,222,0.0,4.0,96,0.00,,,0.68,Wunderground v.1.15,2013-07-12 02:10:00,
2013-07-11 22:20:00,73.7,72.5,29.85,SSW,196,0.0,4.0,96,0.00,,,0.68,Wunderground v.1.15,2013-07-12 02:20:00,
2013-07-11 22:25:00,73.6,72.4,29.85,NNE,27,0.0,4.0,96,0.00,,,0.68,Wunderground v.1.15,2013-07-12 02:25:00,
2013-07-11 22:35:00,73.4,72.2,29.87,NNE,27,0.0,4.0,96,0.00,,,0.68,Wunderground v.1.15,2013-07-12 02:35:00,
2013-07-11 22:40:00,73.4,72.2,29.87,NNE,27,0.0,4.0,96,0.00,,,0.68,Wunderground v.1.15,2013-07-12 02:40:00,
2013-07-11 22:50:00,73.4,72.2,29.87,NNE,27,0.0,4.0,96,0.00,,,0.69,Wunderground v.1.15,2013-07-12 02:50:00,
2013-07-11 23:00:00,73.2,72.0,29.87,NNE,27,0.0,4.0,96,0.00,,,0.69,Wunderground v.1.15,2013-07-12 03:00:00,
2013-07-11 23:05:00,73.1,71.9,29.86,NNE,27,0.0,4.0,96,0.00,,,0.69,Wunderground v.1.15,2013-07-12 03:05:00,
2013-07-11 23:15:00,73.0,71.8,29.86,WNW,282,0.0,4.0,96,0.00,,,0.69,Wunderground v.1.15,2013-07-12 03:15:00,
2013-07-11 23:25:00,72.8,71.6,29.87,WNW,282,0.0,4.0,96,0.00,,,0.70,Wunderground v.1.15,2013-07-12 03:25:00,
2013-07-11 23:35:00,72.6,71.4,29.87,WNW,282,0.0,4.0,96,0.24,,,0.72,Wunderground v.1.15,2013-07-12 03:35:00,
2013-07-11 23:40:00,72.3,71.1,29.87,WNW,282,0.0,4.0,96,0.21,,,0.74,Wunderground v.1.15,2013-07-12 03:40:00,
2013-07-11 23:50:00,71.6,70.1,29.87,SW,226,0.0,4.0,95,0.08,,,0.75,Wunderground v.1.15,2013-07-12 03:50:00,